QPF
0.00 0.00 0.00 0.00 0.01 0.01 0.01 0.01 0.01 0.00 0.00 0.01 0.01 0.01 0.01 0.01 0.02 0.12 0.16 0.10 0.01 0.00 0.00 0.00 0.00 0.00 0.00 0.00 0.00 0.00 0.00 0.00 0.00 0.00 0.00 0.00 0.00 0.00 0.00 0.00 0.00 0.00 0.00 0.00 0.00 0.00 0.00
0.00 0.00 0.01 0.00 0.01 0.01 0.00 0.01 0.00 0.00 0.00 0.01 0.01 0.01 0.00 0.00 0.00 0.02 0.09 0.12 0.03 0.00 0.00 0.00 0.00 0.00 0.00 0.00 0.00 0.00 0.00 0.00 0.00 0.00 0.00 0.00 0.00 0.00 0.00 0.00 0.01 0.00 0.00 0.00 0.00 0.00 0.00
0.00 0.00 0.00 0.00 0.00 0.01 0.00 0.01 0.01 0.00 0.00 0.01 0.01 0.00 0.00 0.00 0.00 0.00 0.02 0.07 0.03 0.02 0.01 0.00 0.00 0.00 0.00 0.00 0.00 0.00 0.00 0.00 0.00 0.00 0.00 0.00 0.00 0.00 0.00 0.00 0.00 0.01 0.02 0.01 0.00 0.00 0.00
0.00 0.00 0.00 0.00 0.00 0.00 0.00 0.00 0.00 0.00 0.01 0.01 0.00 0.00 0.00 0.00 0.00 0.00 0.03 0.04 0.02 0.00 0.00 0.00 0.00 0.01 0.00 0.00 0.00 0.00 0.00 0.00 0.00 0.00 0.00 0.00 0.00 0.01 0.01 0.00 0.00 0.02 0.04 0.03 0.00 0.00 0.00
0.00 0.00 0.00 0.00 0.00 0.00 0.00 0.00 0.00 0.00 0.01 0.01 0.00 0.00 0.00 0.00 0.00 0.01 0.03 0.05 0.07 0.02 0.01 0.00 0.01 0.00 0.00 0.00 0.00 0.00 0.00 0.00 0.00 0.00 0.01 0.00 0.03 0.03 0.02 0.04 0.07 0.05 0.03 0.01 0.00 0.00 0.01
0.00 0.00 0.00 0.00 0.01 0.01 0.01 0.01 0.01 0.01 0.01 0.01 0.00 0.00 0.00 0.00 0.00 0.09 0.15 0.04 0.05 0.03 0.02 0.01 0.01 0.00 0.00 0.00 0.00 0.00 0.00 0.00 0.00 0.00 0.00 0.01 0.03 0.03 0.02 0.07 0.07 0.05 0.01 0.00 0.00 0.03 0.04
0.00 0.00 0.01 0.01 0.01 0.02 0.02 0.01 0.02 0.01 0.01 0.02 0.00 0.00 0.00 0.00 0.08 0.33 0.11 0.08 0.02 0.03 0.02 0.00 0.00 0.00 0.00 0.00 0.00 0.00 0.00 0.00 0.00 0.00 0.01 0.03 0.04 0.02 0.01 0.01 0.01 0.01 0.01 0.01 0.05 0.07 0.07
0.00 0.00 0.01 0.01 0.01 0.02 0.01 0.01 0.00 0.01 0.01 0.03 0.01 0.00 0.00 0.00 0.01 0.15 0.18 0.11 0.04 0.00 0.00 0.00 0.00 0.00 0.00 0.00 0.00 0.00 0.00 0.00 0.01 0.01 0.01 0.02 0.01 0.01 0.02 0.01 0.01 0.00 0.01 0.04 0.13 0.08 0.05
0.00 0.00 0.00 0.01 0.01 0.01 0.01 0.00 0.00 0.02 0.02 0.02 0.02 0.01 0.00 0.00 0.00 0.03 0.07 0.14 0.09 0.00 0.00 0.00 0.00 0.00 0.00 0.00 0.00 0.00 0.00 0.00 0.00 0.00 0.00 0.01 0.01 0.02 0.05 0.02 0.01 0.00 0.02 0.09 0.06 0.02 0.02
0.00 0.01 0.01 0.02 0.01 0.01 0.01 0.01 0.02 0.02 0.01 0.02 0.03 0.01 0.00 0.00 0.00 0.01 0.01 0.02 0.04 0.00 0.00 0.00 0.00 0.00 0.00 0.00 0.00 0.00 0.00 0.00 0.00 0.00 0.01 0.01 0.00 0.01 0.06 0.03 0.01 0.01 0.01 0.07 0.02 0.06 0.06
0.03 0.04 0.05 0.05 0.02 0.01 0.01 0.02 0.03 0.01 0.02 0.05 0.03 0.00 0.01 0.00 0.00 0.01 0.02 0.00 0.00 0.01 0.03 0.00 0.00 0.00 0.00 0.00 0.00 0.00 0.00 0.00 0.00 0.00 0.02 0.02 0.02 0.01 0.01 0.02 0.01 0.04 0.01 0.08 0.02 0.02 0.10
0.11 0.11 0.12 0.11 0.04 0.00 0.01 0.03 0.02 0.02 0.05 0.08 0.03 0.01 0.01 0.00 0.00 0.01 0.07 0.05 0.03 0.09 0.03 0.00 0.00 0.00 0.00 0.00 0.00 0.00 0.01 0.02 0.01 0.02 0.01 0.00 0.05 0.16 0.10 0.02 0.00 0.03 0.03 0.02 0.01 0.02 0.04
0.18 0.28 0.23 0.13 0.02 0.01 0.02 0.02 0.02 0.04 0.07 0.05 0.02 0.06 0.03 0.01 0.00 0.06 0.14 0.14 0.12 0.06 0.00 0.00 0.00 0.00 0.00 0.00 0.00 0.01 0.02 0.03 0.04 0.03 0.02 0.03 0.12 0.25 0.20 0.06 0.01 0.03 0.06 0.06 0.04 0.03 0.01
0.32 0.34 0.24 0.09 0.01 0.03 0.03 0.02 0.03 0.05 0.04 0.03 0.04 0.05 0.05 0.01 0.00 0.02 0.17 0.15 0.05 0.01 0.00 0.00 0.00 0.00 0.00 0.00 0.00 0.00 0.01 0.11 0.08 0.09 0.11 0.06 0.04 0.10 0.11 0.03 0.02 0.04 0.03 0.05 0.01 0.01 0.00
0.27 0.22 0.15 0.02 0.01 0.03 0.02 0.02 0.03 0.04 0.02 0.03 0.04 0.09 0.12 0.01 0.01 0.03 0.15 0.10 0.04 0.00 0.00 0.00 0.00 0.00 0.00 0.00 0.00 0.00 0.03 0.03 0.02 0.01 0.04 0.01 0.01 0.01 0.01 0.00 0.00 0.00 0.00 0.00 0.00 0.00 0.00
0.16 0.15 0.08 0.01 0.01 0.01 0.01 0.02 0.03 0.03 0.03 0.06 0.14 0.26 0.12 0.00 0.00 0.03 0.13 0.08 0.01 0.00 0.00 0.00 0.00 0.00 0.00 0.00 0.00 0.00 0.01 0.00 0.00 0.00 0.00 0.00 0.01 0.01 0.00 0.00 0.00 0.00 0.00 0.00 0.00 0.00 0.00
0.06 0.11 0.02 0.00 0.01 0.00 0.01 0.03 0.03 0.02 0.04 0.05 0.04 0.13 0.13 0.02 0.02 0.05 0.07 0.04 0.01 0.00 0.00 0.00 0.00 0.00 0.00 0.00 0.00 0.00 0.00 0.00 0.00 0.00 0.00 0.00 0.00 0.00 0.00 0.00 0.00 0.00 0.00 0.00 0.00 0.00 0.00
0.04 0.02 0.00 0.00 0.00 0.01 0.02 0.03 0.02 0.03 0.03 0.02 0.04 0.14 0.12 0.06 0.05 0.06 0.03 0.00 0.01 0.01 0.00 0.00 0.00 0.00 0.00 0.00 0.00 0.00 0.00 0.00 0.00 0.00 0.00 0.00 0.00 0.00 0.00 0.00 0.00 0.00 0.00 0.00 0.00 0.00 0.00
0.00 0.00 0.00 0.00 0.00 0.01 0.02 0.01 0.01 0.02 0.02 0.01 0.06 0.19 0.14 0.06 0.02 0.02 0.01 0.00 0.01 0.02 0.00 0.00 0.00 0.00 0.00 0.00 0.00 0.00 0.00 0.00 0.00 0.00 0.00 0.00 0.00 0.00 0.00 0.00 0.00 0.00 0.00 0.00 0.00 0.00 0.00
0.00 0.00 0.00 0.00 0.00 0.01 0.01 0.00 0.00 0.01 0.01 0.00 0.01 0.09 0.07 0.02 0.01 0.01 0.00 0.01 0.03 0.01 0.01 0.00 0.00 0.00 0.00 0.00 0.00 0.00 0.00 0.00 0.00 0.00 0.00 0.00 0.00 0.00 0.00 0.00 0.00 0.00 0.00 0.00 0.00 0.00 0.00
0.00 0.00 0.00 0.00 0.01 0.00 0.01 0.00 0.00 0.00 0.00 0.00 0.00 0.03 0.02 0.02 0.01 0.00 0.00 0.02 0.02 0.04 0.01 0.00 0.01 0.00 0.00 0.00 0.00 0.00 0.00 0.00 0.00 0.00 0.00 0.00 0.00 0.00 0.00 0.00 0.00 0.00 0.00 0.00 0.00 0.00 0.00
0.00 0.00 0.00 0.01 0.00 0.00 0.00 0.00 0.00 0.00 0.00 0.00 0.00 0.01 0.00 0.00 0.00 0.00 0.01 0.01 0.02 0.01 0.01 0.01 0.01 0.00 0.00 0.00 0.00 0.00 0.00 0.00 0.00 0.00 0.00 0.00 0.00 0.00 0.00 0.00 0.00 0.00 0.00 0.00 0.00 0.00 0.00
0.00 0.00 0.00 0.00 0.00 0.00 0.00 0.01 0.00 0.00 0.00 0.00 0.00 0.00 0.01 0.01 0.00 0.00 0.00 0.00 0.01 0.00 0.00 0.00 0.01 0.00 0.00 0.00 0.00 0.00 0.00 0.00 0.00 0.00 0.00 0.00 0.00 0.00 0.00 0.00 0.00 0.00 0.00 0.00 0.00 0.00 0.00
0.00 0.00 0.00 0.00 0.00 0.00 0.01 0.02 0.00 0.01 0.00 0.00 0.00 0.00 0.00 0.00 0.00 0.00 0.00 0.00 0.00 0.00 0.00 0.00 0.00 0.00 0.00 0.00 0.00 0.00 0.00 0.00 0.00 0.00 0.00 0.00 0.00 0.00 0.00 0.00 0.00 0.00 0.00 0.00 0.00 0.00 0.00
0.00 0.00 0.00 0.00 0.00 0.00 0.00 0.00 0.00 0.02 0.02 0.01 0.00 0.00 0.00 0.00 0.00 0.00 0.00 0.00 0.00 0.00 0.00 0.00 0.00 0.00 0.00 0.00 0.00 0.00 0.00 0.00 0.00 0.00 0.00 0.00 0.00 0.00 0.00 0.00 0.00 0.00 0.00 0.00 0.00 0.00 0.00
0.00 0.00 0.00 0.00 0.00 0.00 0.00 0.00 0.00 0.00 0.00 0.00 0.00 0.00 0.00 0.00 0.00 0.00 0.00 0.00 0.00 0.00 0.00 0.00 0.00 0.00 0.00 0.00 0.00 0.00 0.00 0.00 0.00 0.00 0.00 0.00 0.00 0.00 0.00 0.00 0.00 0.00 0.00 0.00 0.00 0.00 0.00
0.00 0.00 0.00 0.00 0.00 0.00 0.00 0.00 0.00 0.00 0.00 0.00 0.00 0.00 0.00 0.00 0.00 0.00 0.00 0.00 0.00 0.00 0.00 0.00 0.00 0.00 0.00 0.00 0.00 0.00 0.00 0.00 0.00 0.00 0.00 0.00 0.00 0.00 0.00 0.00 0.00 0.00 0.00 0.00 0.00 0.00 0.00
0.00 0.00 0.00 0.00 0.00 0.00 0.00 0.00 0.00 0.00 0.00 0.00 0.00 0.00 0.00 0.00 0.00 0.00 0.00 0.00 0.00 0.00 0.00 0.00 0.00 0.00 0.00 0.00 0.00 0.00 0.00 0.00 0.00 0.00 0.00 0.00 0.00 0.00 0.00 0.00 0.00 0.00 0.00 0.00 0.00 0.00 0.00
0.00 0.00 0.00 0.00 0.00 0.00 0.00 0.00 0.00 0.00 0.00 0.00 0.00 0.00 0.00 0.00 0.00 0.00 0.00 0.00 0.00 0.00 0.00 0.00 0.00 0.00 0.00 0.00 0.00 0.00 0.00 0.00 0.00 0.00 0.00 0.00 0.00 0.00 0.00 0.00 0.00 0.00 0.00 0.00 0.00 0.00 0.00
MSLP
1023.21 1022.69 1022.18 1021.61 1021.08 1020.65 1020.15 1019.71 1019.32 1018.76 1018.13 1017.55 1016.97 1016.36 1015.94 1015.49 1014.91 1014.28 1013.54 1012.90 1013.25 1013.64 1013.75 1013.99 1014.30 1014.64 1014.89 1013.79 1012.08 1012.56 1013.17 1013.46 1013.25 1013.45 1013.50 1013.56 1013.59 1013.23 1012.90 1012.90 1012.58 1012.39 1012.04 1011.31 1010.36 1009.77 1009.19
1023.10 1022.62 1022.14 1021.72 1021.18 1020.70 1020.17 1019.70 1019.27 1018.80 1018.17 1017.55 1016.91 1016.34 1015.92 1015.41 1014.71 1014.25 1013.71 1013.09 1013.01 1013.48 1013.45 1013.85 1014.25 1014.52 1014.23 1013.10 1011.75 1012.18 1012.75 1013.21 1013.08 1013.17 1013.14 1013.43 1013.53 1013.39 1013.38 1013.54 1013.19 1012.49 1012.09 1011.38 1010.42 1009.56 1008.94
1023.09 1022.51 1021.99 1021.56 1021.06 1020.58 1020.10 1019.56 1019.04 1018.54 1018.00 1017.57 1016.92 1016.28 1015.82 1015.23 1014.58 1013.99 1013.57 1012.81 1012.69 1013.18 1013.43 1013.68 1014.12 1014.16 1013.66 1012.23 1011.80 1012.29 1012.70 1012.90 1012.92 1012.99 1012.95 1013.28 1013.54 1013.83 1013.24 1013.26 1012.69 1012.77 1012.31 1011.25 1010.06 1009.23 1008.62
1022.90 1022.38 1021.81 1021.24 1020.74 1020.35 1019.84 1019.41 1018.92 1018.54 1018.03 1017.55 1016.93 1016.23 1015.56 1014.95 1014.37 1013.38 1012.66 1012.19 1012.43 1012.80 1013.38 1013.71 1013.86 1013.94 1012.52 1011.60 1011.76 1012.14 1012.45 1012.61 1012.89 1013.00 1013.17 1013.31 1013.62 1013.71 1013.59 1013.38 1013.05 1012.55 1011.66 1010.27 1008.62 1008.30 1008.17
1022.80 1022.18 1021.63 1021.07 1020.64 1020.07 1019.71 1019.26 1018.82 1018.31 1017.72 1017.35 1016.86 1016.25 1015.64 1014.93 1013.99 1012.57 1010.79 1011.66 1012.47 1012.76 1013.31 1013.68 1013.63 1013.40 1011.83 1012.06 1011.98 1011.82 1012.03 1012.18 1012.51 1013.00 1013.17 1013.30 1013.73 1013.64 1013.50 1013.26 1012.79 1012.01 1010.49 1008.99 1007.95 1008.09 1008.07
1022.40 1021.78 1021.21 1020.75 1020.23 1019.77 1019.31 1018.96 1018.42 1018.17 1017.55 1017.06 1016.54 1016.02 1015.50 1014.99 1014.04 1012.24 1011.55 1011.76 1012.53 1012.77 1013.06 1013.27 1013.39 1013.41 1011.80 1011.22 1011.44 1011.76 1012.15 1012.39 1012.52 1012.77 1013.15 1013.24 1013.53 1013.17 1012.86 1012.76 1011.48 1010.00 1009.44 1008.12 1007.05 1006.77 1007.25
1022.08 1021.48 1020.97 1020.50 1019.86 1019.35 1018.78 1018.35 1018.00 1017.56 1017.36 1017.07 1016.47 1015.73 1015.21 1014.93 1014.31 1013.60 1013.07 1012.34 1012.75 1013.40 1012.64 1011.41 1011.44 1011.09 1010.69 1011.40 1011.81 1011.80 1011.92 1012.40 1012.34 1012.44 1012.20 1012.19 1012.52 1011.73 1011.08 1011.20 1010.74 1009.73 1008.65 1007.38 1006.49 1005.71 1006.26
1021.63 1021.04 1020.50 1019.95 1019.48 1019.14 1018.65 1018.30 1017.84 1017.36 1017.20 1016.69 1016.31 1015.75 1014.97 1014.53 1014.23 1013.75 1013.59 1012.81 1012.52 1012.76 1011.61 1010.84 1010.73 1010.95 1010.92 1011.13 1011.06 1011.40 1011.95 1011.92 1011.80 1011.57 1011.51 1011.60 1010.84 1009.89 1010.42 1010.61 1010.21 1009.20 1008.01 1006.44 1006.45 1005.75 1006.04
1021.07 1020.52 1019.98 1019.43 1019.09 1018.68 1018.33 1018.07 1017.53 1017.13 1016.84 1016.34 1016.10 1015.67 1014.97 1014.05 1013.68 1013.17 1013.11 1012.92 1012.73 1012.45 1011.68 1009.78 1010.24 1010.38 1010.69 1011.19 1010.41 1010.51 1011.66 1011.32 1011.16 1011.05 1010.66 1010.31 1009.23 1009.53 1010.04 1009.82 1009.30 1008.00 1006.93 1006.32 1005.94 1005.48 1005.37
1020.52 1019.94 1019.30 1018.91 1018.64 1018.33 1017.87 1017.53 1017.26 1016.95 1016.36 1016.09 1015.75 1015.37 1014.84 1014.24 1013.27 1012.92 1012.76 1012.41 1012.45 1012.13 1011.40 1009.88 1010.00 1009.91 1010.47 1010.46 1010.17 1010.49 1010.94 1010.83 1010.80 1010.56 1009.78 1009.36 1008.69 1008.70 1009.28 1009.03 1008.40 1006.95 1006.10 1006.37 1005.57 1005.22 1004.64
1019.73 1019.16 1018.92 1018.89 1018.69 1017.98 1017.50 1017.16 1016.90 1016.45 1016.00 1015.64 1015.40 1014.96 1014.71 1014.46 1013.70 1013.24 1013.17 1012.81 1012.04 1011.95 1010.70 1009.28 1009.72 1009.80 1009.83 1009.93 1009.98 1010.60 1010.92 1010.85 1010.50 1009.85 1009.95 1009.05 1008.60 1008.49 1008.32 1008.12 1007.54 1006.57 1005.83 1006.16 1005.78 1004.83 1004.56
1018.70 1017.77 1017.82 1018.42 1018.46 1017.44 1017.20 1016.93 1016.51 1016.00 1015.51 1015.16 1014.84 1014.67 1014.46 1013.63 1013.32 1013.14 1013.11 1013.20 1012.66 1012.27 1009.50 1009.03 1009.35 1009.53 1009.70 1009.58 1009.45 1010.63 1011.05 1011.52 1010.86 1010.63 1010.06 1009.44 1009.44 1009.51 1008.68 1008.09 1007.49 1006.63 1006.22 1006.12 1005.35 1004.35 1004.38
1017.48 1016.61 1017.99 1018.57 1017.93 1017.42 1016.99 1016.59 1016.00 1015.39 1014.91 1014.56 1014.23 1013.99 1014.14 1013.70 1013.26 1013.01 1013.40 1013.25 1012.76 1010.53 1008.69 1008.88 1008.60 1008.92 1008.42 1008.74 1008.97 1009.61 1010.28 1010.78 1010.56 1010.39 1009.66 1009.40 1009.37 1009.27 1008.97 1008.27 1007.01 1006.67 1005.58 1005.20 1004.53 1003.68 1003.76
1017.10 1017.97 1018.70 1018.58 1017.86 1017.16 1016.74 1016.19 1015.45 1014.88 1014.42 1013.83 1013.37 1013.04 1012.64 1012.43 1012.79 1013.01 1013.45 1013.21 1011.16 1008.70 1008.07 1008.02 1007.98 1008.12 1007.89 1007.98 1008.06 1008.67 1009.05 1009.90 1010.33 1010.21 1009.54 1008.90 1008.75 1008.75 1008.12 1007.57 1006.71 1005.95 1005.29 1004.42 1003.22 1002.58 1002.86
1018.78 1018.88 1018.82 1018.17 1017.39 1016.73 1016.31 1015.67 1015.12 1014.58 1013.87 1013.09 1012.40 1011.72 1011.52 1011.43 1012.24 1012.97 1013.40 1012.34 1009.99 1008.75 1008.19 1007.72 1007.87 1007.45 1007.30 1007.70 1007.79 1008.14 1008.81 1008.56 1008.78 1009.18 1008.62 1008.04 1008.47 1008.38 1007.49 1006.86 1006.35 1005.04 1004.45 1004.32 1003.14 1002.26 1002.50
1019.01 1018.86 1018.35 1017.61 1017.19 1016.74 1016.28 1015.57 1014.95 1014.21 1013.40 1012.41 1011.65 1011.11 1011.34 1011.57 1012.26 1013.01 1013.04 1011.10 1010.03 1009.25 1008.30 1007.90 1007.16 1006.65 1006.34 1006.91 1007.23 1007.51 1007.56 1007.71 1007.49 1007.63 1007.52 1007.14 1007.55 1007.81 1006.86 1006.27 1005.63 1005.21 1004.69 1003.80 1002.99 1002.54 1002.52
1018.93 1018.62 1017.98 1017.65 1017.26 1016.85 1016.23 1015.56 1014.82 1013.97 1013.07 1012.03 1011.51 1011.65 1012.12 1012.21 1012.83 1013.17 1012.39 1011.30 1010.45 1009.90 1008.90 1008.32 1007.37 1006.70 1006.16 1006.59 1006.70 1006.67 1007.04 1007.43 1007.24 1006.90 1006.84 1006.55 1006.13 1007.24 1006.85 1006.25 1005.82 1004.88 1004.18 1003.57 1003.24 1002.82 1002.11
1018.98 1018.63 1018.27 1017.76 1017.33 1016.87 1016.32 1015.67 1014.79 1013.97 1013.02 1012.30 1012.01 1012.49 1013.48 1013.01 1013.28 1013.08 1011.91 1011.53 1011.46 1010.58 1009.41 1008.79 1007.88 1007.08 1006.54 1006.64 1006.60 1006.60 1006.89 1007.16 1007.31 1006.94 1006.42 1006.51 1006.25 1006.28 1006.32 1006.22 1006.12 1005.71 1004.85 1003.95 1003.07 1002.98 1002.70
1019.13 1018.81 1018.40 1017.82 1017.46 1017.02 1016.46 1015.72 1014.93 1014.22 1013.58 1013.27 1013.32 1013.99 1014.15 1013.58 1012.80 1012.54 1012.09 1011.99 1011.94 1011.17 1010.06 1008.98 1007.68 1007.45 1007.41 1006.94 1006.75 1006.87 1007.17 1007.75 1007.35 1007.11 1006.86 1006.58 1006.34 1006.13 1005.95 1006.17 1005.72 1005.25 1004.99 1004.42 1003.89 1003.59 1003.76
1019.17 1018.93 1018.42 1017.99 1017.54 1017.10 1016.56 1015.86 1015.19 1014.38 1013.90 1013.28 1013.35 1014.28 1014.39 1013.70 1012.95 1012.23 1012.22 1012.42 1012.20 1011.50 1010.55 1009.38 1008.20 1007.61 1007.24 1006.99 1006.76 1007.04 1007.33 1007.76 1007.67 1007.38 1007.55 1006.83 1006.97 1007.03 1007.05 1007.43 1007.31 1006.36 1005.68 1004.84 1004.36 1004.20 1004.43
1019.41 1018.95 1018.43 1018.06 1017.51 1017.09 1016.59 1016.02 1015.44 1014.79 1014.04 1013.45 1013.77 1014.82 1014.78 1014.00 1013.43 1012.66 1012.47 1012.73 1012.22 1011.72 1010.59 1009.26 1008.37 1007.71 1007.35 1007.12 1007.00 1007.16 1007.47 1007.60 1007.53 1007.48 1007.20 1006.85 1007.42 1008.13 1007.93 1007.82 1007.54 1007.19 1006.71 1005.92 1005.46 1004.68 1004.86
1019.49 1019.01 1018.45 1018.02 1017.51 1017.07 1016.62 1016.12 1015.59 1015.07 1014.52 1014.31 1014.68 1014.91 1014.66 1014.56 1014.00 1013.63 1013.28 1012.91 1012.41 1011.71 1010.34 1009.40 1008.54 1008.18 1007.65 1007.41 1007.28 1007.19 1007.25 1007.09 1007.35 1007.45 1007.47 1007.66 1008.10 1008.23 1007.96 1007.95 1007.66 1007.37 1007.09 1006.76 1006.43 1006.13 1006.07
1019.37 1018.81 1018.41 1017.95 1017.50 1017.05 1016.61 1016.11 1015.76 1015.40 1015.08 1014.84 1015.32 1015.08 1014.75 1014.90 1014.49 1013.89 1013.22 1012.94 1012.40 1011.36 1010.56 1010.03 1009.42 1008.50 1008.54 1008.75 1007.95 1007.81 1007.68 1007.79 1007.89 1007.78 1007.80 1007.86 1008.14 1008.37 1008.13 1007.86 1007.56 1007.33 1007.76 1007.49 1007.28 1006.88 1006.52
1019.11 1018.70 1018.21 1017.90 1017.39 1016.94 1016.51 1016.09 1015.80 1015.55 1015.39 1015.24 1015.31 1015.14 1014.57 1014.73 1014.54 1014.14 1013.68 1013.19 1012.24 1011.55 1010.63 1010.50 1009.98 1009.23 1010.00 1009.26 1008.63 1008.23 1008.18 1008.31 1008.39 1008.49 1008.27 1008.18 1008.45 1008.81 1008.67 1008.34 1007.97 1008.17 1008.28 1008.27 1007.80 1007.59 1007.48
1018.89 1018.73 1018.14 1017.73 1017.25 1016.75 1016.27 1015.89 1015.59 1015.42 1015.18 1015.18 1015.30 1015.25 1014.80 1014.53 1014.42 1014.23 1013.64 1013.09 1012.50 1011.85 1011.49 1011.24 1011.19 1010.65 1010.52 1009.68 1008.78 1008.58 1008.61 1008.60 1008.94 1009.21 1009.05 1008.78 1008.61 1008.85 1008.62 1008.11 1008.30 1008.36 1008.61 1008.52 1008.27 1008.33 1008.37
1018.78 1018.70 1018.13 1017.63 1017.11 1016.52 1015.95 1015.50 1015.13 1015.06 1014.99 1014.87 1015.04 1015.47 1015.06 1014.48 1014.41 1014.75 1013.85 1013.16 1012.81 1012.43 1011.93 1011.97 1011.94 1011.36 1010.76 1009.76 1009.13 1008.86 1008.78 1009.30 1009.26 1009.46 1009.47 1009.17 1008.84 1008.80 1008.76 1008.39 1008.08 1008.63 1009.13 1009.24 1008.99 1008.55 1009.08
1018.78 1018.30 1018.21 1017.59 1016.90 1016.16 1015.27 1014.64 1014.46 1014.68 1014.99 1014.82 1015.47 1015.74 1015.37 1014.44 1015.11 1015.06 1014.37 1013.90 1013.84 1013.43 1012.90 1012.47 1012.33 1011.58 1010.92 1010.04 1009.56 1009.43 1009.69 1010.29 1009.71 1009.59 1009.65 1009.40 1009.20 1008.96 1008.74 1008.56 1008.28 1008.83 1009.15 1009.24 1009.16 1010.08 1009.70
1018.67 1018.14 1017.88 1017.66 1016.79 1015.83 1014.64 1013.94 1014.27 1014.91 1015.32 1015.13 1015.75 1015.73 1015.32 1014.80 1015.63 1015.73 1015.36 1014.74 1014.27 1013.84 1013.10 1013.10 1012.80 1012.09 1011.54 1010.91 1010.36 1010.16 1009.98 1010.34 1010.25 1010.22 1010.22 1009.75 1009.44 1009.30 1009.20 1009.11 1009.14 1009.34 1009.58 1009.63 1010.01 1010.27 1010.27
1018.56 1018.19 1017.62 1017.45 1016.67 1015.70 1015.14 1014.73 1014.80 1015.47 1015.70 1015.29 1015.40 1015.87 1015.54 1015.15 1015.97 1016.36 1016.22 1016.09 1015.96 1015.61 1014.74 1013.71 1013.23 1012.38 1011.94 1011.59 1011.31 1010.97 1010.69 1010.87 1010.54 1010.06 1010.82 1010.32 1009.88 1009.54 1009.49 1009.21 1009.57 1009.61 1009.87 1010.24 1010.35 1010.25 1010.63
Thickness
5565 5561 5559 5556 5553 5548 5545 5542 5539 5537 5537 5536 5536 5537 5536 5535 5538 5541 5545 5547 5543 5541 5538 5536 5533 5529 5527 5533 5543 5541 5534 5527 5524 5519 5515 5512 5507 5509 5508 5506 5505 5504 5503 5511 5518 5520 5523
5555 5551 5546 5542 5538 5535 5531 5528 5525 5522 5521 5521 5520 5520 5519 5520 5523 5525 5528 5533 5531 5528 5530 5526 5522 5521 5523 5521 5539 5532 5525 5519 5517 5511 5508 5502 5495 5495 5489 5480 5481 5489 5490 5491 5498 5505 5511
5544 5540 5536 5530 5526 5522 5518 5514 5511 5508 5506 5505 5504 5503 5502 5503 5507 5511 5514 5520 5523 5518 5518 5518 5514 5514 5516 5525 5530 5523 5516 5512 5508 5502 5497 5491 5483 5475 5479 5474 5482 5477 5467 5479 5493 5500 5502
5532 5528 5523 5519 5514 5507 5503 5499 5495 5491 5488 5485 5485 5485 5486 5488 5490 5500 5507 5511 5511 5509 5507 5507 5507 5506 5517 5526 5522 5516 5509 5504 5498 5492 5485 5479 5472 5470 5470 5475 5473 5475 5479 5477 5501 5502 5500
5521 5515 5508 5503 5498 5494 5488 5484 5478 5472 5469 5464 5463 5463 5465 5469 5477 5489 5506 5502 5498 5499 5497 5498 5502 5503 5518 5515 5513 5509 5503 5498 5492 5484 5478 5474 5469 5468 5470 5464 5464 5468 5485 5500 5507 5501 5494
5511 5504 5499 5493 5488 5480 5474 5466 5458 5449 5445 5441 5440 5441 5444 5447 5456 5475 5483 5487 5485 5486 5490 5492 5494 5493 5511 5514 5508 5501 5495 5489 5483 5479 5473 5473 5466 5467 5468 5463 5489 5504 5498 5511 5515 5519 5508
5501 5494 5487 5480 5474 5467 5458 5448 5438 5431 5425 5419 5418 5420 5423 5426 5435 5446 5457 5473 5474 5473 5485 5504 5507 5511 5515 5506 5497 5494 5490 5481 5481 5480 5479 5482 5471 5479 5493 5492 5495 5504 5510 5516 5525 5535 5524
5492 5485 5477 5469 5459 5447 5438 5428 5419 5411 5404 5401 5397 5398 5406 5412 5420 5431 5440 5455 5466 5471 5491 5500 5506 5505 5505 5501 5499 5493 5485 5484 5484 5484 5490 5484 5489 5506 5498 5491 5492 5505 5515 5531 5521 5534 5528
5484 5476 5466 5456 5442 5429 5418 5410 5401 5393 5385 5381 5377 5379 5387 5399 5408 5424 5437 5445 5454 5465 5477 5506 5502 5503 5500 5493 5501 5497 5485 5489 5491 5491 5496 5494 5509 5506 5495 5496 5498 5518 5526 5528 5530 5536 5541
5478 5468 5457 5442 5427 5415 5405 5396 5385 5374 5371 5365 5363 5366 5374 5384 5402 5415 5429 5441 5449 5462 5472 5503 5495 5499 5495 5498 5499 5494 5491 5493 5495 5494 5506 5508 5516 5513 5501 5503 5514 5525 5540 5530 5540 5538 5544
5470 5459 5441 5426 5412 5404 5395 5383 5371 5367 5361 5356 5355 5358 5362 5371 5388 5402 5417 5430 5447 5460 5496 5503 5494 5496 5497 5500 5501 5493 5492 5495 5498 5508 5504 5509 5516 5518 5520 5520 5527 5533 5543 5530 5535 5548 5538
5468 5459 5444 5425 5406 5399 5386 5372 5365 5360 5357 5356 5357 5356 5359 5370 5384 5398 5411 5423 5439 5457 5500 5494 5494 5490 5495 5501 5505 5490 5488 5484 5493 5491 5501 5510 5507 5503 5516 5521 5526 5536 5535 5534 5543 5554 5549
5473 5463 5439 5419 5406 5391 5375 5367 5361 5358 5358 5358 5361 5361 5361 5368 5382 5397 5408 5422 5449 5479 5501 5488 5496 5499 5510 5508 5509 5506 5499 5493 5501 5507 5509 5502 5498 5499 5507 5511 5532 5532 5543 5541 5548 5555 5559
5469 5447 5426 5413 5397 5384 5370 5361 5359 5359 5360 5364 5365 5368 5374 5380 5387 5399 5407 5421 5471 5500 5504 5504 5504 5507 5511 5516 5518 5516 5515 5497 5489 5490 5509 5523 5525 5509 5520 5525 5529 5535 5543 5545 5560 5566 5568
5448 5427 5412 5398 5388 5374 5361 5359 5360 5362 5364 5368 5370 5374 5379 5390 5396 5404 5410 5441 5478 5494 5499 5504 5503 5511 5515 5516 5518 5516 5503 5515 5515 5502 5519 5527 5521 5517 5529 5535 5539 5551 5554 5559 5568 5587 5578
5437 5416 5402 5389 5373 5362 5358 5361 5364 5367 5370 5374 5378 5381 5391 5404 5407 5412 5421 5460 5476 5487 5498 5502 5508 5521 5524 5523 5522 5520 5524 5528 5531 5530 5532 5538 5530 5526 5539 5545 5551 5551 5559 5562 5571 5565 5570
5428 5410 5394 5378 5367 5361 5363 5368 5371 5375 5379 5383 5391 5400 5402 5411 5415 5419 5442 5454 5471 5480 5492 5497 5507 5516 5530 5524 5529 5532 5532 5531 5535 5538 5539 5543 5549 5533 5539 5544 5544 5558 5564 5573 5576 5578 5589
5425 5403 5386 5374 5368 5368 5372 5376 5382 5386 5392 5401 5408 5413 5407 5417 5424 5429 5456 5462 5459 5471 5489 5492 5507 5517 5525 5527 5529 5533 5533 5535 5535 5539 5542 5545 5548 5542 5545 5551 5552 5553 5560 5573 5577 5577 5587
5422 5402 5387 5379 5376 5379 5384 5389 5394 5399 5404 5409 5411 5406 5414 5424 5449 5451 5462 5462 5458 5470 5482 5493 5511 5517 5519 5525 5528 5533 5534 5530 5538 5538 5543 5548 5548 5547 5554 5556 5561 5563 5567 5573 5579 5582 5572
5425 5407 5398 5393 5392 5393 5397 5402 5409 5416 5422 5430 5436 5426 5425 5436 5452 5469 5467 5458 5460 5471 5476 5494 5509 5519 5524 5528 5535 5532 5534 5533 5537 5541 5535 5549 5545 5545 5547 5538 5542 5551 5563 5576 5577 5572 5575
5431 5420 5414 5411 5408 5409 5412 5415 5421 5428 5436 5445 5448 5434 5437 5453 5456 5473 5474 5458 5468 5467 5484 5502 5512 5521 5526 5527 5534 5534 5537 5539 5542 5542 5548 5556 5540 5532 5543 5544 5548 5551 5555 5567 5565 5583 5573
5446 5436 5432 5427 5427 5428 5427 5431 5436 5441 5447 5449 5451 5453 5455 5454 5465 5464 5462 5462 5466 5474 5493 5502 5514 5521 5531 5532 5537 5537 5542 5549 5545 5549 5548 5550 5537 5541 5546 5549 5552 5552 5559 5564 5566 5573 5574
5457 5455 5450 5448 5446 5448 5446 5449 5450 5454 5456 5460 5457 5460 5465 5459 5460 5467 5477 5474 5473 5487 5496 5501 5510 5524 5525 5524 5538 5542 5546 5547 5547 5549 5548 5549 5544 5544 5548 5552 5556 5565 5554 5559 5562 5569 5577
5480 5475 5472 5467 5466 5465 5465 5466 5467 5468 5468 5469 5468 5469 5478 5475 5468 5470 5470 5474 5486 5490 5499 5503 5512 5524 5516 5529 5538 5543 5546 5546 5547 5547 5552 5549 5546 5543 5547 5549 5556 5557 5555 5554 5560 5564 5567
5493 5487 5486 5485 5483 5482 5482 5483 5482 5482 5482 5481 5477 5477 5479 5481 5479 5476 5480 5483 5489 5494 5495 5500 5503 5513 5517 5527 5535 5536 5538 5542 5541 5541 5544 5551 5551 5544 5550 5561 5560 5557 5556 5559 5561 5562 5562
5505 5495 5495 5494 5495 5495 5497 5498 5499 5495 5494 5494 5489 5482 5486 5491 5492 5474 5492 5499 5496 5497 5502 5500 5501 5510 5517 5530 5534 5533 5538 5534 5536 5537 5542 5547 5552 5552 5549 5549 5558 5557 5553 5554 5557 5566 5557
5509 5505 5499 5499 5502 5506 5510 5513 5512 5508 5502 5500 5494 5488 5490 5503 5489 5484 5502 5503 5492 5494 5497 5506 5503 5513 5522 5529 5531 5535 5532 5527 5535 5536 5535 5539 5543 5545 5551 5552 5561 5556 5553 5555 5559 5553 5552
5514 5510 5504 5501 5505 5511 5519 5523 5519 5512 5506 5504 5497 5494 5499 5505 5492 5487 5490 5503 5507 5510 5517 5512 5513 5517 5520 5524 5531 5534 5537 5534 5535 5536 5535 5540 5543 5544 5549 5546 5547 5552 5551 5555 5552 5549 5550
5515 5512 5511 5506 5512 5516 5518 5520 5517 5511 5508 5509 5506 5498 5499 5504 5497 5491 5491 5492 5491 5493 5508 5517 5518 5525 5528 5528 5530 5532 5534 5533 5540 5545 5533 5539 5548 5552 5551 5556 5550 5552 5550 5547 5548 5551 5547